Regional Weather Roundup
Issued by NWS

Home | Current Version | Previous Version | Text Only | Print | Product List | Glossary Off
Versions: 1 2 3 4 5 6 7 8 9 10 11 12 13 14 15 16 17 18 19 20 21 22 23 24 25 26 27 28 29 30 31 32 33 34 35 36 37 38 39 40 41 42 43 44 45 46 47 48 49 50

000
ASUS45 KPSR 011600
RWRAZ

ARIZONA HOURLY REGIONAL WEATHER ROUNDUP
NATIONAL WEATHER SERVICE PHOENIX AZ
900 AM MST TUE SEP 01 2015

NOTE: FAIR INDICATES FEW OR NO CLOUDS BELOW 12,000 FEET WITH NO
SIGNIFICANT WEATHER AND/OR OBSTRUCTIONS TO VISIBILITY.

AZZ001>003-036-011700-
NORTHWEST ARIZONA

CITY           SKY/WX    TMP DP  RH WIND       PRES   REMARKS
KINGMAN        SUNNY     82  47  29 VRB3      30.05S
$$

AZZ004>008-015-016-018-011700-
NORTH CENTRAL ARIZONA

CITY           SKY/WX    TMP DP  RH WIND       PRES   REMARKS
GRAND CANYON   SUNNY     67  52  58 SW9       30.29S
WILLIAMS       SUNNY     70  48  46 S3        30.33F
PRESCOTT       SUNNY     74  54  49 CALM      30.18S
FLAGSTAFF      NOT AVBL
PAYSON         MOSUNNY   70  57  64 CALM      30.21R
PAGE           SUNNY     75  54  47 W3        30.12R
$$

AZZ009>014-017-011700-
NORTHEAST ARIZONA

CITY           SKY/WX    TMP DP  RH WIND       PRES   REMARKS
WINSLOW        NOT AVBL
SAINT JOHNS    MOSUNNY   67  54  63 E6        30.25R
WINDOW ROCK    CLOUDY    64  51  62 CALM      30.32S
$$

AZZ023-011700-
GREATER PHOENIX AREA

CITY           SKY/WX    TMP DP  RH WIND       PRES   REMARKS
PHOENIX        PTSUNNY   84  65  52 E5        29.92S
GLENDALE       MOSUNNY   86  64  48 CALM      29.94S
LUKE AFB       MOSUNNY   85  65  51 N5        29.92R
DEER VALLEY    MOSUNNY   86  60  41 CALM      29.94R
SCOTTSDALE     MOSUNNY   83  63  50 VRB3      29.96R
MESA-GATEWAY   MOSUNNY   82  66  57 VRB3      29.97R
CHANDLER       PTSUNNY   82  66  57 NE6       29.94R
$$

AZZ027-028-011700-
SOUTHWEST MARICOPA COUNTY AND PINAL COUNTY

CITY           SKY/WX    TMP DP  RH WIND       PRES   REMARKS
CASA GRANDE    PTSUNNY   82  64  54 CALM      29.94S
GILA BEND      FAIR      90  62  38 VRB3      29.88S
$$

AZZ503-504-507>509-011700-
SOUTHEAST ARIZONA

CITY           SKY/WX    TMP DP  RH WIND       PRES   REMARKS
TUCSON         MOSUNNY   80  64  58 SE12      30.04R
DAVIS-MONTHAN  PTSUNNY   80  62  53 SE6       30.02R
RYAN FIELD     SUNNY     81  68  65 CALM      30.02R
NOGALES        MOSUNNY   76  59  55 CALM      30.12R
SIERRA VISTA   MOSUNNY   77  55  47 VRB7      30.17S
SAFFORD        CLOUDY    72  65  78 W7        30.09R
$$

AZZ020-021-025-026-031-011700-
SOUTHWEST ARIZONA

CITY           SKY/WX    TMP DP  RH WIND       PRES   REMARKS
YUMA           NOT AVBL
$$

CAZ031-033-041-043-047-048-061-011700-
SOUTHERN CALIFORNIA

CITY           SKY/WX    TMP DP  RH WIND       PRES   REMARKS
DOWNTOWN L.A.  CLOUDY    72  59  63 CALM      29.92S
L.A. AIRPORT   CLOUDY    72  59  63 E7        29.93S
SAN DIEGO      PTSUNNY   71  58  63 S6        29.95R
BURBANK        CLOUDY    71  59  65 VRB3      29.93F
ONTARIO        PTSUNNY   69  59  70 VRB3      29.94S
RIVERSIDE      CLOUDY    70  59  68 NE5       29.95S
PALM SPRINGS   MOSUNNY   84  52  33 W5        29.88S
EL CENTRO NAS  PTSUNNY   89  72  56 SE5       29.83R
IMPERIAL       SUNNY     91  75  59 SE10      29.81R HX 101
BLYTHE         SUNNY     90  67  46 S6        29.85R
$$

NVZ020-UTZ003-011700-
SOUTHERN NEVADA-UTAH

CITY           SKY/WX    TMP DP  RH WIND       PRES   REMARKS
LAS VEGAS      NOT AVBL
SALT LAKE CITY PTSUNNY   79  46  31 S12G21    29.99S
$$

NMZ009-TXZ055-011700-
NEW MEXICO-WEST TEXAS

CITY           SKY/WX    TMP DP  RH WIND       PRES   REMARKS
ALBUQUERQUE    MOSUNNY   77  48  35 CALM      30.21S
EL PASO        MOSUNNY   85  46  25 NE5       30.08R
$$


........................KEY........................
SKY/WX - SKY CONDITION/WEATHER
TMP    - TEMPERATURE IN FAHRENHEIT
DP     - DEW POINT IN FAHRENHEIT
RH     - RELATIVE HUMIDITY IN PERCENT
WIND   - DIRECTION AND SPEED IN MILES PER HOUR (MPH)
VRB    - VARIABLE WIND DIRECTION
PRES   - MEAN SEA LEVEL PRESSURE IN INCHES OF MERCURY
         F - FALLING PRESSURE   R - RISING PRESSURE
         S - STEADY PRESSURE
VSB    - VISIBILITY IN MILES
HX     - HEAT INDEX IN FAHRENHEIT
WCI    - WIND CHILL INDEX IN FAHRENHEIT
TC     - TEMPERATURE IN CELSIUS WHICH IS ALSO KNOWN AS
         TEMPERATURE IN CENTIGRADE
AFB    - AIR FORCE BASE
         LUKE AFB IS LUKE AIR FORCE BASE
         DAVIS-MONTHAN IS DAVIS-MONTHAN AIR FORCE BASE
NAS    - NAVAL AIR STATION
         EL CENTRO NAS IS EL CENTRO NAVAL AIR STATION
N/A    - NOT AVAILABLE



USA.gov is the U.S. government's official web portal to all federal, state and local government web resources and services.